Erie, PA

12:03 PM EST on December 07, 2019 (GMT -0500)
Erie International

Weather History for KERI - November, 2019

Change the Weather History Date:

Tuesday, November 12, 2019

  Actual Average Record
Temperature  
Mean Temperature 28 °F 45 °F  
Max Temperature 31 °F 52 °F 71 °F (1911)
Min Temperature 25 °F 38 °F 18 °F (1911)
Degree Days  
Heating Degree Days 37 20  
Month to date heating degree days 301 222  
Since 1 July heating degree days 574 725  
Cooling Degree Days 0 0  
Month to date cooling degree days 0 0  
Year to date cooling degree days 847 638  
Moisture  
Dew Point 19 °F    
Average Humidity 70    
Maximum Humidity 88    
Minimum Humidity 42    
Precipitation  
Precipitation 0.06 in 0.12 in 1.31 in (1931)
Month to date precipitation 1.61 1.54  
Year to date precipitation 35.10 36.03  
Snow  
Snow 1.00 in 0.20 in - ()
Month to date snowfall 7.7 2.0  
Since 1 July snowfall 7.7 2.2  
Since 1 September snowfall 7.7 2.2  
Snow Depth 6.00 in    
Sea Level Pressure  
Sea Level Pressure 30.12 in    
Wind  
Wind Speed 13 mph ()    
Max Wind Speed 24 mph    
Max Gust Speed 34 mph    
Visibility 5.1 miles    
Events Snow    
T = Trace of Precipitation, MM = Missing Value Source: Averaged Metar Reports

Daily Weather History Graph

Daily Weather History Graph

Search for Another Location

Airport or City:

Astronomy

Nov. 12, 2019 Rise Set
Actual Time 7:06 AM EST 5:02 PM EST
Civil Twilight 6:36 AM EST 5:32 PM EST
Nautical Twilight 6:03 AM EST 6:05 PM EST
Astronomical Twilight 5:30 AM EST 6:38 PM EST
Moon 5:29 PM EST (11/12) 6:55 AM EST (11/12)
Length of Visible Light 10h 55m
Length of Day
9h 55m
Full, 100% of the Moon is Illuminated
Nov 12
Full
Nov 19
Last Quarter
Nov 26
New
Dec 4
First Quarter
Dec 12
Full

Hourly Weather History & Observations

Time (EST) Temp. Windchill Dew Point Humidity Pressure Visibility Wind Dir Wind Speed Gust Speed Precip Events Conditions
12:01 AM 30.9 °F 17.8 °F 27.0 °F 85% 29.95 in 1.0 mi NNE 23.0 mph 33.4 mph 0.00 in Snow Light Snow
12:30 AM 30.0 °F 18.3 °F 26.1 °F 85% 29.95 in 1.5 mi NNE 17.3 mph 27.6 mph 0.01 in Snow Light Snow
12:51 AM 30.0 °F 19.1 °F 26.1 °F 85% 29.99 in 1.5 mi NNE 15.0 mph - 0.02 in Snow Light Snow
12:57 AM 30.0 °F 18.7 °F 26.1 °F 85% 29.96 in 0.8 mi North 16.1 mph 24.2 mph 0.00 in Snow Light Snow
1:06 AM 30.0 °F 18.3 °F 27.0 °F 88% 29.96 in 0.8 mi North 17.3 mph 29.9 mph 0.00 in Snow Light Snow
1:27 AM 30.0 °F 16.9 °F 26.1 °F 85% 29.97 in 1.0 mi North 21.9 mph 31.1 mph 0.01 in Snow Light Snow
1:51 AM 28.9 °F 16.5 °F 25.0 °F 85% 30.00 in 1.2 mi North 18.4 mph 27.6 mph 0.03 in Snow Light Snow
2:07 AM 28.9 °F 17.3 °F 25.0 °F 85% 29.98 in 1.5 mi North 16.1 mph 23.0 mph 0.00 in Snow Light Snow
2:11 AM 30.0 °F 18.3 °F 25.0 °F 82% 29.98 in 1.8 mi North 17.3 mph 23.0 mph 0.00 in Snow Light Snow
2:17 AM 30.0 °F 19.5 °F 24.1 °F 79% 29.99 in 3.0 mi North 13.8 mph 25.3 mph 0.00 in Snow Light Snow
2:51 AM 30.0 °F 19.5 °F 24.1 °F 79% 30.02 in 6.0 mi North 13.8 mph 23.0 mph 0.00 in Snow Light Snow
3:06 AM 30.0 °F 20.0 °F 24.1 °F 79% 30.00 in 7.0 mi North 12.7 mph 25.3 mph 0.00 in Snow Light Snow
3:17 AM 28.9 °F 17.7 °F 23.0 °F 78% 30.00 in 6.0 mi North 15.0 mph 25.3 mph 0.00 in Snow Light Snow
3:51 AM 28.9 °F 18.6 °F 23.0 °F 78% 30.04 in 3.0 mi North 12.7 mph - 0.00 in Snow Light Snow
4:04 AM 28.9 °F 19.2 °F 24.1 °F 82% 30.02 in 2.5 mi North 11.5 mph - 0.00 in Snow Light Snow
4:40 AM 28.9 °F 18.2 °F 24.1 °F 82% 30.03 in 2.0 mi North 13.8 mph - 0.00 in Snow Light Snow
4:51 AM 28.0 °F 17.5 °F 23.0 °F 81% 30.06 in 1.8 mi North 12.7 mph 20.7 mph 0.00 in Snow Light Snow
4:58 AM 28.0 °F 18.1 °F 23.0 °F 81% 30.04 in 1.8 mi North 11.5 mph - 0.00 in Snow Light Snow
5:05 AM 28.0 °F 17.0 °F 23.0 °F 81% 30.04 in 1.5 mi North 13.8 mph 21.9 mph 0.00 in Snow Light Snow
5:19 AM 28.0 °F 17.5 °F 23.0 °F 81% 30.04 in 2.0 mi North 12.7 mph 18.4 mph 0.01 in Snow Light Snow
5:33 AM 28.0 °F 17.5 °F 23.0 °F 81% 30.04 in 2.0 mi North 12.7 mph 20.7 mph 0.01 in Snow Light Snow
5:51 AM 28.0 °F 18.6 °F 21.9 °F 78% 30.08 in 1.8 mi North 10.4 mph - 0.01 in Snow Light Snow
6:14 AM 28.0 °F 18.1 °F 21.9 °F 78% 30.06 in 2.0 mi North 11.5 mph 17.3 mph 0.00 in Snow Light Snow
6:28 AM 28.0 °F 18.6 °F 21.0 °F 75% 30.07 in 2.0 mi NNW 10.4 mph 18.4 mph 0.00 in Snow Light Snow
6:35 AM 28.0 °F 18.1 °F 21.0 °F 75% 30.07 in 2.0 mi NNW 11.5 mph 18.4 mph 0.00 in Snow Light Snow
6:42 AM 28.0 °F 18.1 °F 21.0 °F 75% 30.07 in 2.0 mi North 11.5 mph - 0.00 in Snow Light Snow
6:51 AM 27.0 °F 16.7 °F 21.0 °F 78% 30.11 in 1.8 mi NNW 11.5 mph - 0.00 in Snow Light Snow
7:08 AM 27.0 °F 17.3 °F 19.9 °F 75% 30.08 in 2.0 mi NNW 10.4 mph - 0.00 in Snow Light Snow
7:19 AM 27.0 °F 16.7 °F 19.9 °F 75% 30.09 in 5.0 mi NNW 11.5 mph - 0.00 in Snow Light Snow
7:51 AM 28.0 °F 18.1 °F 19.0 °F 69% 30.14 in 10.0 mi NNW 11.5 mph 18.4 mph 0.00 in   Overcast
8:51 AM 28.0 °F 19.3 °F 18.0 °F 66% 30.16 in 10.0 mi North 9.2 mph - N/A   Overcast
9:14 AM 28.0 °F 20.0 °F 18.0 °F 66% 30.13 in 10.0 mi North 8.1 mph - N/A   Overcast
9:22 AM 28.0 °F 19.3 °F 17.1 °F 63% 30.13 in 10.0 mi North 9.2 mph - N/A   Overcast
9:51 AM 28.0 °F 20.0 °F 17.1 °F 63% 30.17 in 10.0 mi North 8.1 mph - N/A   Overcast
10:33 AM 28.0 °F 18.1 °F 17.1 °F 63% 30.14 in 10.0 mi North 11.5 mph 23.0 mph N/A   Overcast
10:40 AM 28.0 °F 18.6 °F 16.0 °F 61% 30.15 in 10.0 mi North 10.4 mph - N/A   Overcast
10:51 AM 28.0 °F 17.5 °F 16.0 °F 61% 30.18 in 10.0 mi North 12.7 mph 18.4 mph N/A   Overcast
11:02 AM 28.0 °F 20.0 °F 17.1 °F 63% 30.15 in 10.0 mi North 8.1 mph 18.4 mph N/A   Overcast
11:22 AM 28.0 °F 18.6 °F 16.0 °F 61% 30.16 in 10.0 mi North 10.4 mph - N/A   Overcast
12:51 PM 28.0 °F 17.5 °F 14.0 °F 56% 30.19 in 10.0 mi North 12.7 mph 18.4 mph N/A   Overcast
1:51 PM 27.0 °F 16.1 °F 12.0 °F 53% 30.22 in 10.0 mi NNW 12.7 mph - N/A   Overcast
2:51 PM 28.0 °F 18.6 °F 10.9 °F 49% 30.22 in 10.0 mi North 10.4 mph - N/A   Overcast
3:51 PM 27.0 °F 16.7 °F 9.0 °F 47% 30.24 in 10.0 mi NNW 11.5 mph - N/A   Overcast
4:51 PM 26.1 °F 13.6 °F 15.1 °F 63% 30.25 in 2.5 mi NW 16.1 mph 25.3 mph 0.00 in Snow Light Snow
5:00 PM 26.1 °F 14.0 °F 16.0 °F 66% 30.23 in 1.5 mi NNW 15.0 mph 23.0 mph 0.00 in Snow Light Snow
5:13 PM 26.1 °F 13.1 °F 14.0 °F 60% 30.23 in 3.0 mi WNW 17.3 mph 25.3 mph 0.00 in Snow Light Snow
5:30 PM 26.1 °F 14.5 °F 12.9 °F 58% 30.23 in 4.0 mi NNW 13.8 mph 26.5 mph 0.00 in Snow Light Snow
5:51 PM 25.0 °F 13.1 °F 14.0 °F 63% 30.27 in 2.5 mi NNW 13.8 mph 25.3 mph 0.00 in Snow Light Snow
6:34 PM 25.0 °F 16.3 °F 16.0 °F 69% 30.24 in 2.5 mi North 8.1 mph - 0.00 in Snow Light Snow
6:42 PM 26.1 °F 13.1 °F 14.0 °F 60% 30.25 in 6.0 mi NNW 17.3 mph 29.9 mph 0.00 in Snow Light Snow
6:51 PM 27.0 °F 16.7 °F 12.0 °F 53% 30.28 in 6.0 mi NNW 11.5 mph 21.9 mph 0.00 in Snow Light Snow
7:51 PM 27.0 °F 13.9 °F 8.1 °F 45% 30.30 in 8.0 mi WNW 18.4 mph 24.2 mph 0.00 in Snow Light Snow
8:51 PM 27.0 °F 15.6 °F 9.0 °F 47% 30.30 in 10.0 mi WNW 13.8 mph 25.3 mph 0.00 in   Overcast
9:51 PM 27.0 °F 17.3 °F 9.0 °F 47% 30.30 in 10.0 mi NW 10.4 mph 20.7 mph N/A   Overcast
10:51 PM 27.0 °F 16.7 °F 7.0 °F 43% 30.31 in 10.0 mi WNW 11.5 mph - N/A   Overcast
11:51 PM 27.0 °F 16.7 °F 8.1 °F 45% 30.31 in 10.0 mi NW 11.5 mph 23.0 mph N/A   Overcast